AFR842 LFPG-TFFF

Flight info

Callsign AFR842
Flight time N/A
Altitude 34000
Route ELCOB UT300 SENLO UN502 JSY DCT LARLA DCT RATKA/M083F340 DCT KOGAD DCT 4830N02000W 45N030W 39N040W/M083F360 35N045W 30N050W 22N055W/M083F380 DCT DRDGE/N0475F380 DCT UMAMU UMAMU2D
Aircraft B77W/H-SDE1E2E3FGHIJ2J3J4J5M1RWXY/LB1D1

Departure

Time N/A
Airport Charles de Gaulle International Airport (LFPG)

Arrival

Time 2026-04-29 19:08
Airport Martinique Aimé Césaire International Airport (TFFF)
Time Latitude Longitude Altitude Speed Heading
2026-04-29 14:47 37.81507 -41.56533 36092 ft 426 kts 231°
2026-04-29 14:48 37.77353 -41.61882 36088 ft 426 kts 231°
2026-04-29 14:48 37.73193 -41.67227 36090 ft 426 kts 231°
2026-04-29 14:49 37.69037 -41.72560 36083 ft 425 kts 231°
2026-04-29 14:49 37.64885 -41.77878 36086 ft 425 kts 231°
2026-04-29 14:50 37.60734 -41.83184 36080 ft 424 kts 231°
2026-04-29 14:50 37.56596 -41.88467 36084 ft 422 kts 231°
2026-04-29 14:51 37.52493 -41.93695 36086 ft 421 kts 231°
2026-04-29 14:51 37.48375 -41.98935 36082 ft 420 kts 231°
2026-04-29 14:52 37.44326 -42.04079 36082 ft 420 kts 231°
2026-04-29 14:52 37.40206 -42.09303 36084 ft 420 kts 231°
2026-04-29 14:53 37.36093 -42.14511 36088 ft 420 kts 231°
2026-04-29 14:53 37.31996 -42.19690 36078 ft 420 kts 230°
2026-04-29 14:54 37.27870 -42.24897 36086 ft 420 kts 230°
2026-04-29 14:54 37.23737 -42.30102 36082 ft 421 kts 230°
2026-04-29 14:55 37.19602 -42.35303 36068 ft 421 kts 229°
2026-04-29 14:55 37.15460 -42.40504 36081 ft 421 kts 229°
2026-04-29 14:56 37.11315 -42.45701 36083 ft 421 kts 229°
2026-04-29 14:56 37.07189 -42.50864 36068 ft 422 kts 229°
2026-04-29 14:57 37.03027 -42.56064 36094 ft 423 kts 229°
2026-04-29 14:57 36.98862 -42.61260 36080 ft 424 kts 229°
2026-04-29 14:58 36.94676 -42.66473 36069 ft 425 kts 229°
2026-04-29 14:58 36.90499 -42.71667 36086 ft 426 kts 229°
2026-04-29 14:59 36.86289 -42.76893 36089 ft 427 kts 229°
2026-04-29 14:59 36.82076 -42.82113 36076 ft 427 kts 229°
2026-04-29 15:00 36.77856 -42.87332 36083 ft 426 kts 229°
2026-04-29 15:00 36.73649 -42.92525 36080 ft 425 kts 229°
2026-04-29 15:01 36.69448 -42.97710 36079 ft 424 kts 229°
2026-04-29 15:01 36.65356 -43.02748 36074 ft 423 kts 229°
2026-04-29 15:02 36.61181 -43.07879 36076 ft 421 kts 229°
2026-04-29 15:02 36.57011 -43.12999 36071 ft 420 kts 228°
2026-04-29 15:03 36.52848 -43.18099 36075 ft 420 kts 228°
2026-04-29 15:03 36.48674 -43.23204 36074 ft 420 kts 228°
2026-04-29 15:04 36.44503 -43.28301 36077 ft 420 kts 227°
2026-04-29 15:04 36.40356 -43.33357 36071 ft 421 kts 227°
2026-04-29 15:05 36.36177 -43.38445 36067 ft 421 kts 227°
2026-04-29 15:05 36.31995 -43.43528 36075 ft 421 kts 227°
2026-04-29 15:06 36.27810 -43.48607 36075 ft 421 kts 227°
2026-04-29 15:06 36.23612 -43.53694 36072 ft 422 kts 227°
2026-04-29 15:07 36.19424 -43.58761 36074 ft 422 kts 227°
2026-04-29 15:07 36.15209 -43.63852 36073 ft 422 kts 227°
2026-04-29 15:08 36.11003 -43.68924 36062 ft 422 kts 227°
2026-04-29 15:08 36.06792 -43.73995 36079 ft 423 kts 226°
2026-04-29 15:09 36.02602 -43.79033 36072 ft 423 kts 226°
2026-04-29 15:09 35.98380 -43.84101 36067 ft 424 kts 226°
2026-04-29 15:10 35.94146 -43.89174 36069 ft 423 kts 226°
2026-04-29 15:10 35.89919 -43.94232 36068 ft 423 kts 226°
2026-04-29 15:11 35.85688 -43.99286 36066 ft 423 kts 226°
2026-04-29 15:11 35.81590 -44.04174 36068 ft 423 kts 226°
2026-04-29 15:12 35.77357 -44.09216 36063 ft 423 kts 226°
2026-04-29 15:12 35.73126 -44.14246 36063 ft 423 kts 226°
2026-04-29 15:13 35.68879 -44.19289 36065 ft 423 kts 226°
2026-04-29 15:13 35.64638 -44.24316 36062 ft 423 kts 226°
2026-04-29 15:14 35.60383 -44.29353 36061 ft 424 kts 225°
2026-04-29 15:14 35.56149 -44.34356 36044 ft 425 kts 225°
2026-04-29 15:15 35.51893 -44.39379 36060 ft 425 kts 225°
2026-04-29 15:15 35.47621 -44.44412 36058 ft 426 kts 225°
2026-04-29 15:16 35.43339 -44.49447 36060 ft 426 kts 225°
2026-04-29 15:16 35.39051 -44.54484 36056 ft 426 kts 225°
2026-04-29 15:17 35.34762 -44.59513 36055 ft 426 kts 225°
2026-04-29 15:17 35.30502 -44.64502 36055 ft 426 kts 225°
2026-04-29 15:18 35.26218 -44.69510 36049 ft 426 kts 224°
2026-04-29 15:18 35.21932 -44.74513 36052 ft 425 kts 224°
2026-04-29 15:19 35.17645 -44.79508 36052 ft 425 kts 224°
2026-04-29 15:19 35.13361 -44.84495 36049 ft 425 kts 224°
2026-04-29 15:20 35.09109 -44.89436 36045 ft 425 kts 224°
2026-04-29 15:20 35.04819 -44.94414 36047 ft 425 kts 224°
2026-04-29 15:21 35.00538 -44.99374 36047 ft 425 kts 224°
2026-04-29 15:21 34.96298 -45.04102 36042 ft 425 kts 222°
2026-04-29 15:22 34.91849 -45.08851 36034 ft 425 kts 222°
2026-04-29 15:22 34.87400 -45.13595 36043 ft 424 kts 222°
2026-04-29 15:23 34.82967 -45.18344 36036 ft 424 kts 222°
2026-04-29 15:23 34.78538 -45.23095 36038 ft 425 kts 221°
2026-04-29 15:24 34.74110 -45.27843 36037 ft 425 kts 221°
2026-04-29 15:24 34.69709 -45.32555 36035 ft 425 kts 221°
2026-04-29 15:25 34.65272 -45.37299 36032 ft 425 kts 221°
2026-04-29 15:25 34.60830 -45.42041 36032 ft 425 kts 221°
2026-04-29 15:26 34.57128 -45.45986 36025 ft 425 kts 221°
2026-04-29 15:26 34.52687 -45.50712 36029 ft 424 kts 221°
2026-04-29 15:27 34.48248 -45.55430 36025 ft 424 kts 221°
2026-04-29 15:27 34.44367 -45.59548 36025 ft 424 kts 220°
2026-04-29 15:28 34.39934 -45.64248 36015 ft 423 kts 220°
2026-04-29 15:28 34.35499 -45.68941 36020 ft 423 kts 220°
2026-04-29 15:29 34.31072 -45.73619 36002 ft 423 kts 220°
2026-04-29 15:30 34.22206 -45.82968 36009 ft 423 kts 219°
2026-04-29 15:30 34.17758 -45.87648 35991 ft 424 kts 219°
2026-04-29 15:31 34.13322 -45.92308 36007 ft 425 kts 219°
2026-04-29 15:31 34.08843 -45.97008 36003 ft 427 kts 219°
2026-04-29 15:32 34.04472 -46.01587 35995 ft 429 kts 219°
2026-04-29 15:32 33.99966 -46.06301 35998 ft 430 kts 219°
2026-04-29 15:33 33.95432 -46.11037 35991 ft 431 kts 219°
2026-04-29 15:33 33.90921 -46.15742 35990 ft 431 kts 220°
2026-04-29 15:34 33.86382 -46.20470 35985 ft 431 kts 219°
2026-04-29 15:34 33.81846 -46.25188 35980 ft 430 kts 219°
2026-04-29 15:35 33.77360 -46.29849 35954 ft 419 kts 219°
2026-04-29 15:35 33.75200 -46.32092 35951 ft 400 kts 219°
2026-04-29 15:35 33.73136 -46.34235 35949 ft 383 kts 219°
2026-04-29 15:35 33.71165 -46.36279 35947 ft 367 kts 219°
2026-04-29 15:36 33.69291 -46.38221 35958 ft 353 kts 219°
2026-04-29 15:36 33.67464 -46.40112 35947 ft 340 kts 219°
2026-04-29 15:36 33.65700 -46.41936 35870 ft 330 kts 219°
2026-04-29 15:36 33.63957 -46.43736 35442 ft 331 kts 219°
2026-04-29 15:37 33.62200 -46.45548 34944 ft 334 kts 219°
2026-04-29 15:37 33.60443 -46.47360 34673 ft 330 kts 219°
2026-04-29 15:37 33.58719 -46.49138 34523 ft 324 kts 219°
2026-04-29 15:37 33.57010 -46.50901 34305 ft 325 kts 219°
2026-04-29 15:38 33.55316 -46.52647 34222 ft 325 kts 219°
2026-04-29 15:38 33.53626 -46.54385 33870 ft 335 kts 219°
2026-04-29 15:38 33.51849 -46.56213 33723 ft 338 kts 219°
2026-04-29 15:38 33.50183 -46.57927 33417 ft 347 kts 219°
2026-04-29 15:39 33.48568 -46.59587 33162 ft 353 kts 220°
2026-04-29 15:39 33.44835 -46.63424 33075 ft 353 kts 220°
2026-04-29 15:40 33.41103 -46.67257 33060 ft 353 kts 220°
2026-04-29 15:40 33.37376 -46.71078 33030 ft 351 kts 220°
2026-04-29 15:41 33.33669 -46.74875 32987 ft 351 kts 220°
2026-04-29 15:41 33.29983 -46.78647 32991 ft 350 kts 220°
2026-04-29 15:42 33.26285 -46.82424 32948 ft 350 kts 221°
2026-04-29 15:42 33.22708 -46.86075 32945 ft 349 kts 221°
2026-04-29 15:43 33.19114 -46.89738 32909 ft 350 kts 221°
2026-04-29 15:43 33.15424 -46.93496 32920 ft 348 kts 221°
2026-04-29 15:43 33.13697 -46.95253 32794 ft 350 kts 221°
2026-04-29 15:44 33.11848 -46.97132 32857 ft 348 kts 221°
2026-04-29 15:44 33.08305 -47.00733 32857 ft 348 kts 222°
2026-04-29 15:45 33.04751 -47.04340 32855 ft 347 kts 222°
2026-04-29 15:45 33.01288 -47.07851 32822 ft 347 kts 221°
2026-04-29 15:46 32.97637 -47.11548 32839 ft 347 kts 223°
2026-04-29 15:46 32.93946 -47.15283 32891 ft 350 kts 223°
2026-04-29 15:47 32.90215 -47.19052 32908 ft 351 kts 223°
2026-04-29 15:47 32.86492 -47.22810 32930 ft 350 kts 223°
2026-04-29 15:48 32.82773 -47.26558 32912 ft 350 kts 224°
2026-04-29 15:48 32.79059 -47.30298 32909 ft 349 kts 224°
2026-04-29 15:49 32.75388 -47.33989 32912 ft 347 kts 224°
2026-04-29 15:49 32.71691 -47.37703 32896 ft 347 kts 225°
2026-04-29 15:50 32.68008 -47.41400 32914 ft 346 kts 225°
2026-04-29 15:50 32.64334 -47.45083 32918 ft 344 kts 225°
2026-04-29 15:51 32.60675 -47.48747 32941 ft 344 kts 225°
2026-04-29 15:51 32.57040 -47.52382 32920 ft 343 kts 226°
2026-04-29 15:52 32.53388 -47.56031 32918 ft 342 kts 226°
2026-04-29 15:52 32.49749 -47.59663 32941 ft 342 kts 226°
2026-04-29 15:53 32.46116 -47.63284 32945 ft 341 kts 227°
2026-04-29 15:53 32.42486 -47.66900 32894 ft 341 kts 227°
2026-04-29 15:54 32.38851 -47.70516 32916 ft 340 kts 227°
2026-04-29 15:54 32.35223 -47.74122 32860 ft 341 kts 227°
2026-04-29 15:55 32.31613 -47.77705 32882 ft 340 kts 227°
2026-04-29 15:55 32.27984 -47.81303 32860 ft 340 kts 228°
2026-04-29 15:56 32.24353 -47.84898 32867 ft 340 kts 228°
2026-04-29 15:56 32.20731 -47.88481 32872 ft 339 kts 228°
2026-04-29 15:57 32.17116 -47.92055 32863 ft 339 kts 229°
2026-04-29 15:57 32.13497 -47.95627 32850 ft 339 kts 229°
2026-04-29 15:58 32.09902 -47.99174 32858 ft 338 kts 229°
2026-04-29 15:58 32.06349 -48.02675 32869 ft 339 kts 229°
2026-04-29 15:59 32.02713 -48.06255 32868 ft 341 kts 229°
2026-04-29 15:59 31.99077 -48.09831 32846 ft 342 kts 229°
2026-04-29 16:00 31.95422 -48.13418 32849 ft 342 kts 228°
2026-04-29 16:00 31.91764 -48.17004 32850 ft 341 kts 228°
2026-04-29 16:01 31.88141 -48.20554 32852 ft 340 kts 228°
2026-04-29 16:01 31.84501 -48.24117 32839 ft 340 kts 228°
2026-04-29 16:02 31.80863 -48.27674 32845 ft 340 kts 228°
2026-04-29 16:02 31.77229 -48.31224 32847 ft 340 kts 228°
2026-04-29 16:03 31.73595 -48.34770 32849 ft 339 kts 228°
2026-04-29 16:03 31.69958 -48.38317 32721 ft 342 kts 227°
2026-04-29 16:04 31.66307 -48.41872 32745 ft 341 kts 227°
2026-04-29 16:04 31.62650 -48.45428 32804 ft 341 kts 228°
2026-04-29 16:05 31.59021 -48.48954 32807 ft 341 kts 228°
2026-04-29 16:05 31.55369 -48.52499 32774 ft 341 kts 227°
2026-04-29 16:06 31.51709 -48.56048 32779 ft 341 kts 227°
2026-04-29 16:06 31.48046 -48.59596 32780 ft 342 kts 227°
2026-04-29 16:07 31.44378 -48.63145 32790 ft 342 kts 227°
2026-04-29 16:07 31.40702 -48.66699 32790 ft 342 kts 227°
2026-04-29 16:08 31.37024 -48.70251 32794 ft 343 kts 227°
2026-04-29 16:08 31.33343 -48.73800 32803 ft 343 kts 227°
2026-04-29 16:09 31.29652 -48.77357 32810 ft 343 kts 227°
2026-04-29 16:09 31.25983 -48.80888 32819 ft 344 kts 227°
2026-04-29 16:10 31.22286 -48.84443 32799 ft 344 kts 227°
2026-04-29 16:10 31.18580 -48.88004 32807 ft 345 kts 227°
2026-04-29 16:11 31.14868 -48.91566 32814 ft 345 kts 227°
2026-04-29 16:11 31.11777 -48.94528 32815 ft 344 kts 227°
2026-04-29 16:12 31.07515 -48.98604 32809 ft 337 kts 226°
2026-04-29 16:12 31.03968 -49.01996 32815 ft 333 kts 226°
2026-04-29 16:13 31.01000 -49.04832 32814 ft 330 kts 226°
2026-04-29 16:13 30.97461 -49.08212 32830 ft 327 kts 227°
2026-04-29 16:14 30.93957 -49.11554 32824 ft 324 kts 227°
2026-04-29 16:14 30.90482 -49.14866 32818 ft 321 kts 227°
2026-04-29 16:15 30.87042 -49.18141 32814 ft 318 kts 227°
2026-04-29 16:15 30.83629 -49.21387 32818 ft 315 kts 227°
2026-04-29 16:16 30.80250 -49.24598 32816 ft 312 kts 227°
2026-04-29 16:16 30.76899 -49.27780 32788 ft 309 kts 227°
2026-04-29 16:17 30.73563 -49.30946 32705 ft 310 kts 227°
2026-04-29 16:17 30.70235 -49.34099 32684 ft 308 kts 227°
2026-04-29 16:18 30.66918 -49.37241 32610 ft 308 kts 227°
2026-04-29 16:18 30.63625 -49.40356 32528 ft 307 kts 227°
2026-04-29 16:19 30.60308 -49.43492 32389 ft 308 kts 226°
2026-04-29 16:19 30.56992 -49.46622 32388 ft 306 kts 226°
2026-04-29 16:20 30.53682 -49.49745 32330 ft 307 kts 226°
2026-04-29 16:20 30.50366 -49.52872 31967 ft 313 kts 227°
2026-04-29 16:20 30.48637 -49.54510 30985 ft 333 kts 226°
2026-04-29 16:21 30.46757 -49.56300 30309 ft 363 kts 225°
2026-04-29 16:21 30.44758 -49.58189 30358 ft 377 kts 225°
2026-04-29 16:21 30.42681 -49.60141 30451 ft 392 kts 225°
2026-04-29 16:21 30.40527 -49.62162 30547 ft 405 kts 224°
2026-04-29 16:22 30.38306 -49.64244 30635 ft 417 kts 224°
2026-04-29 16:22 30.36018 -49.66388 30731 ft 428 kts 224°
2026-04-29 16:22 30.33675 -49.68581 30880 ft 437 kts 224°
2026-04-29 16:22 30.31293 -49.70809 31077 ft 443 kts 224°
2026-04-29 16:23 30.28883 -49.73062 31372 ft 446 kts 224°
2026-04-29 16:23 30.26498 -49.75290 31810 ft 446 kts 224°
2026-04-29 16:23 30.24084 -49.77543 32327 ft 444 kts 224°
2026-04-29 16:23 30.21683 -49.79784 32832 ft 442 kts 225°
2026-04-29 16:24 30.19298 -49.82012 33283 ft 441 kts 225°
2026-04-29 16:24 30.16914 -49.84238 33717 ft 440 kts 225°
2026-04-29 16:24 30.14533 -49.86461 34098 ft 439 kts 225°
2026-04-29 16:24 30.12157 -49.88677 34496 ft 438 kts 225°
2026-04-29 16:25 30.09786 -49.90887 34911 ft 436 kts 225°
2026-04-29 16:25 30.07433 -49.93081 35307 ft 434 kts 225°
2026-04-29 16:25 30.05089 -49.95264 35683 ft 432 kts 225°
2026-04-29 16:25 30.02745 -49.97446 35879 ft 435 kts 225°
2026-04-29 16:26 30.00354 -49.99611 35866 ft 438 kts 223°
2026-04-29 16:26 29.95257 -50.03281 35856 ft 439 kts 217°
2026-04-29 16:27 29.89989 -50.06808 35859 ft 437 kts 217°
2026-04-29 16:27 29.84765 -50.10321 35862 ft 437 kts 217°
2026-04-29 16:28 29.79524 -50.13861 35838 ft 437 kts 217°
2026-04-29 16:28 29.74236 -50.17434 35857 ft 438 kts 217°
2026-04-29 16:29 29.68999 -50.20968 35870 ft 440 kts 217°
2026-04-29 16:29 29.63701 -50.24537 35870 ft 441 kts 217°
2026-04-29 16:30 29.58390 -50.28112 35872 ft 442 kts 217°
2026-04-29 16:30 29.53066 -50.31689 35874 ft 443 kts 217°
2026-04-29 16:31 29.47740 -50.35264 35871 ft 443 kts 217°
2026-04-29 16:31 29.42443 -50.38814 35866 ft 444 kts 217°
2026-04-29 16:32 29.37111 -50.42385 35879 ft 444 kts 217°
2026-04-29 16:32 29.31769 -50.45957 35874 ft 444 kts 217°
2026-04-29 16:33 29.23752 -50.51311 35876 ft 444 kts 217°
2026-04-29 16:33 29.18413 -50.54870 35877 ft 444 kts 217°
2026-04-29 16:34 29.13071 -50.58427 35876 ft 444 kts 217°
2026-04-29 16:34 29.07739 -50.61974 35861 ft 443 kts 216°
2026-04-29 16:35 29.02400 -50.65521 35880 ft 443 kts 216°
2026-04-29 16:35 28.97066 -50.69060 35880 ft 444 kts 216°
2026-04-29 16:36 28.91721 -50.72603 35883 ft 444 kts 216°
2026-04-29 16:36 28.86389 -50.76132 35885 ft 445 kts 216°
2026-04-29 16:37 28.81029 -50.79676 35884 ft 446 kts 216°
2026-04-29 16:37 28.76568 -50.82622 35888 ft 446 kts 216°
2026-04-29 16:38 28.70273 -50.86774 35866 ft 447 kts 216°
2026-04-29 16:38 28.64918 -50.90302 35893 ft 448 kts 216°
2026-04-29 16:39 28.59522 -50.93852 35891 ft 448 kts 216°
2026-04-29 16:39 28.54119 -50.97403 35891 ft 449 kts 216°
2026-04-29 16:40 28.48817 -51.00883 35886 ft 449 kts 216°
2026-04-29 16:40 28.43400 -51.04434 35895 ft 449 kts 216°
2026-04-29 16:41 28.37984 -51.07980 35896 ft 450 kts 216°
2026-04-29 16:41 28.32555 -51.11531 35884 ft 450 kts 215°
2026-04-29 16:42 28.27124 -51.15079 35896 ft 451 kts 215°
2026-04-29 16:42 28.21680 -51.18632 35899 ft 451 kts 215°
2026-04-29 16:43 28.16229 -51.22184 35899 ft 452 kts 215°
2026-04-29 16:43 28.10775 -51.25736 35909 ft 453 kts 215°
2026-04-29 16:44 28.05307 -51.29290 35903 ft 453 kts 215°
2026-04-29 16:44 27.99842 -51.32839 35908 ft 453 kts 215°
2026-04-29 16:45 27.94407 -51.36364 35895 ft 453 kts 214°
2026-04-29 16:45 27.88942 -51.39904 35901 ft 452 kts 214°
2026-04-29 16:46 27.83482 -51.43437 35919 ft 451 kts 214°
2026-04-29 16:46 27.78035 -51.46957 35922 ft 450 kts 214°
2026-04-29 16:47 27.72602 -51.50465 35911 ft 449 kts 214°
2026-04-29 16:47 27.67181 -51.53962 35909 ft 449 kts 214°
2026-04-29 16:48 27.61784 -51.57438 35924 ft 449 kts 214°
2026-04-29 16:48 27.56352 -51.60933 35894 ft 450 kts 214°
2026-04-29 16:49 27.50917 -51.64426 35911 ft 450 kts 214°
2026-04-29 16:49 27.45474 -51.67920 35919 ft 450 kts 214°
2026-04-29 16:50 27.40030 -51.71411 35921 ft 451 kts 214°
2026-04-29 16:50 27.34572 -51.74906 35921 ft 451 kts 214°
2026-04-29 16:51 27.29110 -51.78400 35917 ft 451 kts 214°
2026-04-29 16:51 27.23644 -51.81893 35927 ft 451 kts 214°
2026-04-29 16:52 27.18177 -51.85382 35906 ft 452 kts 214°
2026-04-29 16:52 27.12742 -51.88846 35914 ft 451 kts 214°
2026-04-29 16:53 27.07277 -51.92327 35929 ft 451 kts 214°
2026-04-29 16:53 27.01813 -51.95802 35925 ft 451 kts 214°
2026-04-29 16:54 26.96352 -51.99272 35921 ft 452 kts 214°
2026-04-29 16:54 26.90981 -52.02681 35930 ft 452 kts 214°
2026-04-29 16:55 26.85501 -52.06156 35931 ft 452 kts 214°
2026-04-29 16:55 26.80023 -52.09625 35926 ft 453 kts 214°
2026-04-29 16:56 26.74543 -52.13091 35929 ft 453 kts 214°
2026-04-29 16:56 26.69977 -52.15976 35936 ft 453 kts 214°
2026-04-29 16:57 26.64485 -52.19443 35932 ft 453 kts 214°
2026-04-29 16:57 26.58095 -52.23471 35918 ft 454 kts 214°
2026-04-29 16:58 26.53488 -52.26373 35936 ft 453 kts 214°
2026-04-29 16:58 26.47984 -52.29835 35942 ft 453 kts 214°
2026-04-29 16:59 26.42485 -52.33291 35936 ft 454 kts 214°
2026-04-29 16:59 26.37019 -52.36722 35929 ft 453 kts 214°
2026-04-29 17:00 26.31520 -52.40170 35940 ft 453 kts 214°
2026-04-29 17:00 26.26022 -52.43613 35943 ft 453 kts 214°
2026-04-29 17:01 26.20520 -52.47056 35943 ft 453 kts 214°
2026-04-29 17:01 26.15022 -52.50492 35939 ft 453 kts 214°
2026-04-29 17:02 26.09533 -52.53919 35945 ft 452 kts 214°
2026-04-29 17:02 26.04043 -52.57343 35946 ft 452 kts 214°
2026-04-29 17:03 25.98551 -52.60764 35948 ft 452 kts 214°
2026-04-29 17:03 25.93098 -52.64157 35945 ft 451 kts 214°
2026-04-29 17:04 25.87620 -52.67562 35949 ft 451 kts 214°
2026-04-29 17:04 25.82143 -52.70963 35950 ft 450 kts 214°
2026-04-29 17:05 25.76674 -52.74356 35940 ft 449 kts 214°
2026-04-29 17:05 25.71221 -52.77734 35950 ft 448 kts 214°
2026-04-29 17:06 25.65781 -52.81101 35951 ft 447 kts 214°
2026-04-29 17:06 25.60346 -52.84462 35958 ft 447 kts 214°
2026-04-29 17:07 25.54940 -52.87802 35947 ft 447 kts 214°
2026-04-29 17:07 25.49513 -52.91149 35954 ft 445 kts 214°
2026-04-29 17:08 25.44102 -52.94485 35956 ft 445 kts 214°
2026-04-29 17:08 25.38730 -52.97793 35958 ft 444 kts 214°
2026-04-29 17:09 25.33409 -53.01066 35960 ft 443 kts 214°
2026-04-29 17:09 25.28006 -53.04388 35960 ft 444 kts 214°
2026-04-29 17:10 25.22597 -53.07708 35965 ft 445 kts 214°
2026-04-29 17:10 25.17173 -53.11035 35964 ft 446 kts 214°
2026-04-29 17:11 25.11727 -53.14369 35973 ft 447 kts 215°
2026-04-29 17:11 25.06295 -53.17693 35954 ft 446 kts 215°
2026-04-29 17:12 25.00908 -53.20987 35952 ft 445 kts 215°
2026-04-29 17:12 24.96423 -53.23726 35973 ft 444 kts 215°
2026-04-29 17:13 24.90106 -53.27580 35968 ft 442 kts 215°
2026-04-29 17:13 24.84725 -53.30859 35966 ft 441 kts 215°
2026-04-29 17:14 24.79357 -53.34128 35967 ft 440 kts 215°
2026-04-29 17:14 24.73997 -53.37389 35968 ft 440 kts 215°
2026-04-29 17:15 24.68642 -53.40641 35964 ft 439 kts 216°
2026-04-29 17:15 24.63305 -53.43882 35970 ft 437 kts 216°
2026-04-29 17:16 24.57983 -53.47110 35973 ft 437 kts 216°
2026-04-29 17:16 24.52697 -53.50314 35975 ft 436 kts 216°
2026-04-29 17:17 24.47378 -53.53533 35968 ft 435 kts 216°
2026-04-29 17:17 24.42075 -53.56739 35968 ft 434 kts 216°
2026-04-29 17:18 24.36781 -53.59938 35974 ft 434 kts 216°
2026-04-29 17:18 24.31532 -53.63106 35981 ft 433 kts 216°
2026-04-29 17:19 24.26244 -53.66296 36056 ft 436 kts 216°
2026-04-29 17:19 24.23584 -53.67900 36355 ft 436 kts 216°
2026-04-29 17:19 24.20936 -53.69494 36748 ft 433 kts 216°
2026-04-29 17:20 24.18297 -53.71080 37121 ft 432 kts 216°
2026-04-29 17:20 24.15670 -53.72660 37435 ft 431 kts 216°
2026-04-29 17:20 24.13040 -53.74242 37730 ft 431 kts 216°
2026-04-29 17:20 24.10404 -53.75827 37900 ft 433 kts 216°
2026-04-29 17:21 24.05112 -53.79009 37956 ft 434 kts 216°
2026-04-29 17:21 23.99845 -53.82167 37979 ft 430 kts 216°
2026-04-29 17:22 23.94611 -53.85303 37984 ft 428 kts 216°
2026-04-29 17:22 23.89402 -53.88424 37986 ft 426 kts 216°
2026-04-29 17:23 23.84233 -53.91519 37988 ft 427 kts 216°
2026-04-29 17:23 23.79019 -53.94637 37978 ft 427 kts 216°
2026-04-29 17:24 23.73804 -53.97753 37988 ft 428 kts 216°
2026-04-29 17:24 23.68658 -54.00825 37987 ft 429 kts 216°
2026-04-29 17:25 23.63410 -54.03955 37992 ft 430 kts 216°
2026-04-29 17:25 23.58150 -54.07088 37983 ft 431 kts 216°
2026-04-29 17:26 23.52879 -54.10224 37998 ft 431 kts 216°
2026-04-29 17:26 23.47641 -54.13338 37995 ft 431 kts 216°
2026-04-29 17:27 23.42372 -54.16468 37984 ft 431 kts 216°
2026-04-29 17:27 23.37101 -54.19596 37975 ft 431 kts 216°
2026-04-29 17:28 23.31835 -54.22718 37987 ft 430 kts 216°
2026-04-29 17:28 23.26582 -54.25830 38001 ft 429 kts 216°
2026-04-29 17:29 23.21364 -54.28919 37995 ft 429 kts 216°
2026-04-29 17:29 23.16963 -54.31522 37995 ft 429 kts 216°
2026-04-29 17:30 23.10860 -54.35128 37997 ft 429 kts 216°
2026-04-29 17:30 23.05611 -54.38227 37996 ft 429 kts 216°
2026-04-29 17:31 23.00361 -54.41323 37999 ft 430 kts 216°
2026-04-29 17:31 22.95118 -54.44413 37994 ft 430 kts 216°
2026-04-29 17:32 22.89864 -54.47506 37992 ft 429 kts 216°
2026-04-29 17:32 22.84612 -54.50595 38000 ft 429 kts 216°
2026-04-29 17:33 22.79353 -54.53687 37998 ft 430 kts 216°
2026-04-29 17:33 22.74088 -54.56778 38004 ft 430 kts 216°
2026-04-29 17:34 22.68850 -54.59851 37982 ft 431 kts 216°
2026-04-29 17:34 22.63580 -54.62940 37995 ft 431 kts 216°
2026-04-29 17:35 22.55666 -54.67573 38002 ft 431 kts 216°
2026-04-29 17:36 22.50382 -54.70664 38002 ft 432 kts 216°
2026-04-29 17:36 22.45095 -54.73753 37982 ft 431 kts 216°
2026-04-29 17:37 22.39813 -54.76837 38011 ft 432 kts 216°
2026-04-29 17:37 22.34514 -54.79928 38004 ft 432 kts 216°
2026-04-29 17:38 22.29254 -54.82994 38000 ft 432 kts 216°
2026-04-29 17:38 22.23957 -54.86079 38004 ft 433 kts 216°
2026-04-29 17:39 22.18654 -54.89164 37997 ft 433 kts 216°
2026-04-29 17:39 22.13350 -54.92248 38004 ft 433 kts 216°
2026-04-29 17:40 22.08043 -54.95331 38005 ft 433 kts 216°
2026-04-29 17:40 22.02733 -54.98413 38006 ft 433 kts 216°
2026-04-29 17:41 21.97755 -55.01668 38005 ft 425 kts 222°
2026-04-29 17:41 21.92958 -55.05407 38007 ft 426 kts 223°
2026-04-29 17:42 21.88153 -55.09152 38006 ft 426 kts 222°
2026-04-29 17:42 21.83336 -55.12887 38006 ft 427 kts 222°
2026-04-29 17:43 21.78510 -55.16616 38006 ft 427 kts 222°
2026-04-29 17:43 21.73675 -55.20347 38002 ft 427 kts 222°
2026-04-29 17:44 21.68868 -55.24054 38006 ft 428 kts 222°
2026-04-29 17:44 21.64024 -55.27786 38009 ft 428 kts 222°
2026-04-29 17:45 21.59964 -55.30911 38013 ft 429 kts 222°
2026-04-29 17:45 21.55115 -55.34641 38010 ft 429 kts 222°
2026-04-29 17:46 21.50296 -55.38344 38006 ft 428 kts 222°
2026-04-29 17:46 21.45444 -55.42072 38011 ft 428 kts 222°
2026-04-29 17:47 21.40592 -55.45795 38011 ft 428 kts 222°
2026-04-29 17:47 21.35743 -55.49512 38011 ft 429 kts 222°
2026-04-29 17:48 21.30883 -55.53235 37988 ft 429 kts 222°
2026-04-29 17:48 21.26058 -55.56928 38009 ft 429 kts 222°
2026-04-29 17:49 21.21198 -55.60646 38006 ft 429 kts 222°
2026-04-29 17:49 21.16331 -55.64366 38010 ft 430 kts 222°
2026-04-29 17:50 21.11449 -55.68093 38011 ft 431 kts 222°
2026-04-29 17:50 21.06562 -55.71821 37985 ft 431 kts 222°
2026-04-29 17:51 21.01673 -55.75548 38010 ft 432 kts 222°
2026-04-29 17:51 20.96786 -55.79270 38017 ft 432 kts 222°
2026-04-29 17:52 20.91880 -55.83004 38003 ft 433 kts 222°
2026-04-29 17:52 20.86975 -55.86733 38005 ft 433 kts 222°
2026-04-29 17:53 20.82102 -55.90435 38008 ft 432 kts 222°
2026-04-29 17:53 20.77196 -55.94159 38004 ft 432 kts 222°
2026-04-29 17:54 20.72293 -55.97878 38006 ft 432 kts 222°
2026-04-29 17:54 20.67454 -56.01546 38005 ft 431 kts 222°
2026-04-29 17:55 20.62552 -56.05258 38006 ft 431 kts 222°
2026-04-29 17:55 20.57653 -56.08965 38006 ft 431 kts 222°
2026-04-29 17:56 20.52784 -56.12648 38005 ft 432 kts 222°
2026-04-29 17:56 20.47869 -56.16363 38005 ft 434 kts 222°
2026-04-29 17:57 20.42929 -56.20092 38006 ft 435 kts 222°
2026-04-29 17:57 20.37985 -56.23821 38009 ft 436 kts 222°
2026-04-29 17:58 20.33012 -56.27569 38001 ft 438 kts 222°
2026-04-29 17:58 20.28032 -56.31320 38019 ft 439 kts 223°
2026-04-29 17:59 20.23057 -56.35063 38007 ft 440 kts 223°
2026-04-29 17:59 20.18058 -56.38821 38007 ft 440 kts 223°
2026-04-29 18:00 20.13066 -56.42570 37986 ft 439 kts 222°
2026-04-29 18:00 20.08065 -56.46326 38004 ft 440 kts 221°
2026-04-29 18:01 20.03060 -56.50080 38004 ft 441 kts 221°
2026-04-29 18:01 19.98063 -56.53825 38008 ft 442 kts 221°
2026-04-29 18:02 19.93024 -56.57599 38016 ft 443 kts 221°
2026-04-29 18:02 19.88006 -56.61353 37981 ft 444 kts 221°
2026-04-29 18:03 19.82960 -56.65127 37988 ft 443 kts 221°
2026-04-29 18:03 19.77918 -56.68891 38009 ft 442 kts 221°
2026-04-29 18:04 19.72895 -56.72640 38000 ft 440 kts 221°
2026-04-29 18:04 19.67910 -56.76359 38006 ft 439 kts 221°
2026-04-29 18:05 19.62913 -56.80084 37985 ft 438 kts 221°
2026-04-29 18:05 19.57929 -56.83795 37999 ft 437 kts 221°
2026-04-29 18:06 19.52955 -56.87498 37994 ft 437 kts 221°
2026-04-29 18:06 19.47972 -56.91204 37996 ft 437 kts 221°
2026-04-29 18:07 19.43024 -56.94881 38003 ft 437 kts 221°
2026-04-29 18:07 19.38037 -56.98585 37981 ft 438 kts 221°
2026-04-29 18:08 19.33125 -57.02229 37992 ft 438 kts 221°
2026-04-29 18:08 19.28122 -57.05938 37997 ft 439 kts 221°
2026-04-29 18:09 19.23107 -57.09654 38002 ft 440 kts 221°
2026-04-29 18:09 19.18090 -57.13367 38009 ft 440 kts 221°
2026-04-29 18:10 19.13066 -57.17083 37985 ft 441 kts 221°
2026-04-29 18:10 19.08034 -57.20803 37999 ft 441 kts 221°
2026-04-29 18:11 19.02999 -57.24522 38001 ft 442 kts 221°
2026-04-29 18:11 18.97977 -57.28228 37997 ft 442 kts 221°
2026-04-29 18:12 18.92960 -57.31928 37993 ft 442 kts 221°
2026-04-29 18:12 18.87909 -57.35649 37983 ft 442 kts 221°
2026-04-29 18:13 18.82849 -57.39376 38002 ft 444 kts 221°
2026-04-29 18:13 18.77781 -57.43106 37999 ft 445 kts 221°
2026-04-29 18:14 18.72694 -57.46847 38001 ft 446 kts 221°
2026-04-29 18:14 18.67601 -57.50588 37994 ft 446 kts 221°
2026-04-29 18:15 18.62530 -57.54311 37980 ft 447 kts 221°
2026-04-29 18:15 18.57428 -57.58053 37995 ft 447 kts 221°
2026-04-29 18:16 18.52316 -57.61801 37995 ft 447 kts 221°
2026-04-29 18:16 18.47199 -57.65550 37995 ft 448 kts 221°
2026-04-29 18:17 18.42110 -57.69274 37989 ft 448 kts 221°
2026-04-29 18:17 18.36995 -57.73016 37991 ft 448 kts 221°
2026-04-29 18:18 18.31879 -57.76755 37995 ft 447 kts 221°
2026-04-29 18:18 18.26773 -57.80484 37989 ft 446 kts 221°
2026-04-29 18:19 18.21668 -57.84210 37988 ft 446 kts 221°
2026-04-29 18:19 18.16573 -57.87927 37987 ft 446 kts 221°
2026-04-29 18:20 18.11476 -57.91643 37976 ft 446 kts 221°
2026-04-29 18:20 18.06375 -57.95359 37989 ft 446 kts 221°
2026-04-29 18:21 18.01292 -57.99091 37992 ft 444 kts 224°
2026-04-29 18:21 17.96821 -58.03301 37992 ft 437 kts 231°
2026-04-29 18:22 17.92609 -58.07852 37985 ft 438 kts 231°
2026-04-29 18:22 17.88352 -58.12439 37979 ft 438 kts 231°
2026-04-29 18:23 17.84081 -58.17015 38000 ft 439 kts 231°
2026-04-29 18:23 17.79792 -58.21595 38003 ft 440 kts 231°
2026-04-29 18:24 17.75497 -58.26175 37980 ft 440 kts 231°
2026-04-29 18:24 17.71195 -58.30760 37978 ft 440 kts 231°
2026-04-29 18:25 17.66923 -58.35310 37989 ft 440 kts 231°
2026-04-29 18:25 17.62625 -58.39885 37968 ft 440 kts 231°
2026-04-29 18:26 17.58329 -58.44454 37992 ft 440 kts 231°
2026-04-29 18:26 17.54025 -58.49029 37993 ft 441 kts 231°
2026-04-29 18:27 17.49714 -58.53608 37968 ft 441 kts 231°
2026-04-29 18:27 17.45398 -58.58189 37988 ft 441 kts 231°
2026-04-29 18:28 17.41081 -58.62767 37990 ft 441 kts 231°
2026-04-29 18:28 17.36793 -58.67312 37975 ft 442 kts 231°
2026-04-29 18:29 17.32468 -58.71892 37984 ft 442 kts 231°
2026-04-29 18:29 17.28144 -58.76469 37983 ft 442 kts 231°
2026-04-29 18:30 17.23808 -58.81055 37986 ft 443 kts 231°
2026-04-29 18:30 17.20211 -58.84856 37984 ft 443 kts 231°
2026-04-29 18:31 17.15868 -58.89443 37988 ft 443 kts 231°
2026-04-29 18:31 17.11521 -58.94031 37973 ft 443 kts 231°
2026-04-29 18:32 17.07204 -58.98585 37981 ft 443 kts 231°
2026-04-29 18:32 17.00765 -59.05370 37981 ft 444 kts 231°
2026-04-29 18:33 16.96424 -59.09940 37985 ft 444 kts 231°
2026-04-29 18:33 16.92067 -59.14524 37984 ft 444 kts 231°
2026-04-29 18:34 16.88447 -59.18331 37976 ft 444 kts 231°
2026-04-29 18:34 16.83380 -59.23655 37971 ft 444 kts 231°
2026-04-29 18:35 16.79029 -59.28224 37983 ft 444 kts 231°
2026-04-29 18:35 16.74645 -59.32823 37986 ft 444 kts 231°
2026-04-29 18:36 16.70309 -59.37370 37978 ft 444 kts 231°
2026-04-29 18:36 16.65946 -59.41942 37976 ft 444 kts 231°
2026-04-29 18:37 16.61586 -59.46506 37966 ft 444 kts 231°
2026-04-29 18:37 16.57225 -59.51071 37981 ft 444 kts 231°
2026-04-29 18:38 16.52868 -59.55627 37973 ft 444 kts 231°
2026-04-29 18:38 16.48534 -59.60155 37968 ft 444 kts 231°
2026-04-29 18:39 16.44171 -59.64711 37968 ft 444 kts 231°
2026-04-29 18:39 16.39809 -59.69263 37974 ft 444 kts 231°
2026-04-29 18:40 16.35444 -59.73816 37967 ft 444 kts 231°
2026-04-29 18:40 16.31076 -59.78368 37977 ft 444 kts 231°
2026-04-29 18:41 16.22338 -59.87466 37973 ft 444 kts 231°
2026-04-29 18:42 16.17993 -59.91985 37971 ft 444 kts 231°
2026-04-29 18:42 16.13637 -59.96511 37777 ft 440 kts 231°
2026-04-29 18:43 16.11468 -59.98764 37275 ft 438 kts 230°
2026-04-29 18:43 16.09421 -60.00887 36848 ft 432 kts 230°
2026-04-29 18:43 16.07301 -60.03087 36405 ft 428 kts 230°
2026-04-29 18:43 16.05202 -60.05266 35966 ft 424 kts 230°
2026-04-29 18:44 16.03123 -60.07425 35399 ft 423 kts 230°
2026-04-29 18:44 16.01043 -60.09584 34956 ft 420 kts 230°
2026-04-29 18:44 15.99003 -60.11700 34549 ft 416 kts 230°
2026-04-29 18:44 15.96965 -60.13814 34116 ft 413 kts 230°
2026-04-29 18:45 15.94937 -60.15917 33638 ft 410 kts 230°
2026-04-29 18:45 15.92921 -60.18007 33141 ft 407 kts 229°
2026-04-29 18:45 15.90921 -60.20078 32694 ft 404 kts 229°
2026-04-29 18:45 15.88935 -60.22132 32246 ft 401 kts 229°
2026-04-29 18:46 15.86962 -60.24171 31809 ft 399 kts 228°
2026-04-29 18:46 15.84998 -60.26200 31371 ft 396 kts 228°
2026-04-29 18:46 15.83075 -60.28187 30935 ft 394 kts 228°
2026-04-29 18:46 15.81141 -60.30186 30505 ft 392 kts 227°
2026-04-29 18:47 15.79206 -60.32185 30060 ft 391 kts 227°
2026-04-29 18:47 15.77275 -60.34179 29565 ft 391 kts 227°
2026-04-29 18:47 15.75349 -60.36167 29093 ft 390 kts 227°
2026-04-29 18:47 15.73428 -60.38149 28632 ft 389 kts 227°
2026-04-29 18:48 15.71509 -60.40129 28185 ft 388 kts 227°
2026-04-29 18:48 15.69592 -60.42107 27746 ft 387 kts 227°
2026-04-29 18:48 15.67682 -60.44077 27290 ft 386 kts 226°
2026-04-29 18:48 15.65778 -60.46041 26852 ft 386 kts 226°
2026-04-29 18:49 15.63876 -60.48001 26410 ft 385 kts 226°
2026-04-29 18:49 15.61980 -60.49956 25974 ft 384 kts 226°
2026-04-29 18:49 15.60105 -60.51887 25536 ft 384 kts 226°
2026-04-29 18:49 15.58210 -60.53840 25097 ft 385 kts 226°
2026-04-29 18:50 15.56297 -60.55812 24630 ft 388 kts 226°
2026-04-29 18:50 15.54378 -60.57789 24192 ft 390 kts 226°
2026-04-29 18:50 15.52446 -60.59780 23743 ft 393 kts 225°
2026-04-29 18:50 15.50496 -60.61788 23232 ft 395 kts 225°
2026-04-29 18:51 15.48542 -60.63798 22738 ft 396 kts 225°
2026-04-29 18:51 15.46584 -60.65811 22267 ft 396 kts 225°
2026-04-29 18:51 15.44623 -60.67827 21796 ft 397 kts 225°
2026-04-29 18:51 15.42666 -60.69838 21335 ft 397 kts 225°
2026-04-29 18:52 15.40726 -60.71831 20877 ft 397 kts 225°
2026-04-29 18:52 15.38766 -60.73844 20423 ft 397 kts 225°
2026-04-29 18:52 15.36800 -60.75863 19952 ft 398 kts 225°
2026-04-29 18:52 15.34827 -60.77888 19475 ft 399 kts 225°
2026-04-29 18:53 15.32851 -60.79916 18995 ft 400 kts 225°
2026-04-29 18:53 15.30875 -60.81944 18528 ft 401 kts 225°
2026-04-29 18:53 15.28888 -60.83983 18012 ft 402 kts 225°
2026-04-29 18:53 15.26897 -60.86024 17500 ft 402 kts 225°
2026-04-29 18:54 15.24909 -60.88062 17018 ft 401 kts 224°
2026-04-29 18:54 15.22930 -60.90090 16536 ft 401 kts 224°
2026-04-29 18:54 15.20949 -60.92120 16063 ft 400 kts 224°
2026-04-29 18:54 15.18978 -60.94140 15596 ft 399 kts 224°
2026-04-29 18:55 15.16999 -60.96167 15130 ft 399 kts 224°
2026-04-29 18:55 15.15026 -60.98186 14670 ft 399 kts 224°
2026-04-29 18:55 15.13157 -61.00100 14222 ft 399 kts 224°
2026-04-29 18:55 15.11191 -61.02111 13756 ft 399 kts 224°
2026-04-29 18:56 15.09219 -61.04128 13242 ft 399 kts 224°
2026-04-29 18:56 15.07247 -61.06145 12777 ft 398 kts 224°
2026-04-29 18:56 15.05307 -61.08130 12283 ft 383 kts 224°
2026-04-29 18:56 15.03459 -61.10020 11859 ft 364 kts 224°
2026-04-29 18:57 15.01692 -61.11827 11453 ft 350 kts 224°
2026-04-29 18:57 15.00007 -61.13548 11063 ft 337 kts 223°
2026-04-29 18:57 14.98335 -61.15255 10712 ft 341 kts 223°
2026-04-29 18:57 14.96631 -61.16993 10305 ft 347 kts 223°
2026-04-29 18:58 14.94922 -61.18736 10151 ft 343 kts 223°
2026-04-29 18:58 14.93229 -61.20465 9966 ft 341 kts 223°
2026-04-29 18:58 14.91536 -61.22193 9736 ft 341 kts 223°
2026-04-29 18:58 14.89871 -61.23893 9618 ft 331 kts 223°
2026-04-29 18:59 14.88269 -61.25527 9477 ft 316 kts 223°
2026-04-29 18:59 14.86739 -61.27088 9352 ft 301 kts 223°
2026-04-29 18:59 14.85245 -61.28574 9215 ft 293 kts 217°
2026-04-29 18:59 14.83459 -61.29489 9101 ft 285 kts 189°
2026-04-29 19:00 14.81519 -61.29550 9014 ft 274 kts 168°
2026-04-29 19:00 14.79694 -61.29047 8640 ft 272 kts 160°
2026-04-29 19:00 14.77878 -61.28407 8403 ft 276 kts 159°
2026-04-29 19:00 14.76076 -61.27759 8309 ft 273 kts 159°
2026-04-29 19:01 14.74309 -61.27126 8051 ft 266 kts 159°
2026-04-29 19:01 14.72566 -61.26507 7521 ft 264 kts 159°
2026-04-29 19:01 14.70850 -61.25903 7011 ft 262 kts 159°
2026-04-29 19:01 14.69113 -61.25294 6453 ft 263 kts 158°
2026-04-29 19:02 14.67381 -61.24688 5895 ft 262 kts 160°
2026-04-29 19:02 14.66237 -61.24290 5545 ft 261 kts 160°
2026-04-29 19:02 14.63969 -61.23504 4945 ft 256 kts 160°
2026-04-29 19:02 14.62285 -61.22919 4440 ft 255 kts 159°
2026-04-29 19:03 14.60620 -61.22344 4019 ft 250 kts 159°
2026-04-29 19:03 14.58960 -61.21768 3490 ft 254 kts 159°
2026-04-29 19:03 14.57352 -61.21099 3205 ft 241 kts 143°
2026-04-29 19:03 14.56330 -61.19864 3066 ft 220 kts 111°
2026-04-29 19:04 14.56169 -61.18370 2991 ft 206 kts 87°
2026-04-29 19:04 14.56313 -61.16895 2783 ft 208 kts 84°
2026-04-29 19:04 14.56541 -61.15427 2532 ft 204 kts 82°
2026-04-29 19:04 14.56783 -61.14016 2256 ft 193 kts 82°
2026-04-29 19:05 14.57006 -61.12712 2031 ft 176 kts 81°
2026-04-29 19:05 14.57209 -61.11524 1828 ft 161 kts 82°
2026-04-29 19:05 14.57393 -61.10436 1631 ft 145 kts 81°
2026-04-29 19:05 14.57559 -61.09455 1435 ft 139 kts 83°
2026-04-29 19:06 14.57727 -61.08450 1265 ft 146 kts 81°
2026-04-29 19:06 14.57906 -61.07407 1064 ft 151 kts 81°
2026-04-29 19:06 14.58248 -61.05354 665 ft 144 kts 79°
2026-04-29 19:07 14.58425 -61.04375 489 ft 139 kts 81°
2026-04-29 19:07 14.58483 -61.04052 458 ft 133 kts 81°
2026-04-29 19:07 14.58753 -61.02444 184 ft 138 kts 81°
2026-04-29 19:07 14.58915 -61.01461 33 ft 135 kts 81°
2026-04-29 19:08 14.59058 -61.00616 23 ft 107 kts 80°
2026-04-29 19:08 14.59163 -60.99987 28 ft 71 kts 80°
2026-04-29 19:08 14.59229 -60.99609 29 ft 36 kts 80°
2026-04-29 19:08 14.59260 -60.99435 30 ft 27 kts 80°
2026-04-29 19:09 14.59293 -60.99238 27 ft 24 kts 80°
2026-04-29 19:09 14.59268 -60.99119 29 ft 7 kts 78°
2026-04-29 19:09 14.59298 -60.99123 28 ft 6 kts 302°
2026-04-29 19:09 14.59301 -60.99176 28 ft 10 kts 262°
2026-04-29 19:10 14.59285 -60.99260 27 ft 13 kts 259°
2026-04-29 19:10 14.59270 -60.99352 28 ft 13 kts 261°
2026-04-29 19:10 14.59255 -60.99444 30 ft 13 kts 260°
2026-04-29 19:10 14.59238 -60.99535 30 ft 13 kts 259°
2026-04-29 19:11 14.59231 -60.99630 29 ft 14 kts 291°
2026-04-29 19:11 14.59316 -60.99670 27 ft 15 kts 350°
2026-04-29 19:11 14.59403 -60.99693 30 ft 6 kts 310°
2026-04-29 19:11 14.59404 -60.99739 28 ft 7 kts 257°
2026-04-29 19:12 14.59393 -60.99793 27 ft 8 kts 258°
2026-04-29 19:12 14.59380 -60.99863 27 ft 14 kts 260°
2026-04-29 19:12 14.59363 -60.99961 29 ft 12 kts 261°
2026-04-29 19:12 14.59359 -60.99988 25 ft 12 kts 262°
2026-04-29 19:13 14.59393 -61.00063 25 ft 5 kts
2026-04-29 19:13 14.59434 -61.00049 23 ft 6 kts 19°
2026-04-29 19:13 14.59446 -61.00045 26 ft 0 kts 20°